Regional Weather Roundup
Issued by NWS

Home | Current Version | Previous Version | Text Only | Print | Product List | Glossary On
Versions: 1 2 3 4 5 6 7 8 9 10 11 12 13 14 15 16 17 18 19 20 21 22 23 24 25 26 27 28 29 30 31 32 33 34 35 36 37 38 39 40 41 42 43 44 45 46 47 48 49 50
000
ASUS42 KFFC 030210
RWRGA
WEATHER ROUNDUP FOR GEORGIA
NATIONAL WEATHER SERVICE PEACHTREE CITY GA
900 PM EST FRI DEC 02 2016

NOTE: "FAIR" INDICATES FEW OR NO CLOUDS BELOW 12,000 FEET WITH NO
SIGNIFICANT WEATHER AND/OR OBSTRUCTIONS TO VISIBILITY.

* = USE WITH CAUTION. THE STATIONS MARKED WITH AN ASTERISK MAY NOT
REPORT WEATHER SUCH AS PRECIPITATION, FOG, OR THUNDER AND ARE NOT
QUALITY CONTROLLED BY NWS.

THE REMARK "TC" DENOTES TEMPERATURE READING IN DEGREES CELSIUS.

GAZ001>058-030300-
NORTH GEORGIA

CITY           SKY/WX    TMP DP  RH WIND       PRES   REMARKS
ATLANTA        PTCLDY    49  32  52 N6        30.24S
ATHENS         CLEAR     50  31  48 NW6       30.23R
CHAMBLEE       CLEAR     40  31  70 N5        30.24F
PEACHTREE CITY CLOUDY    38  34  85 CALM      30.25F
ROME           PTCLDY    40  35  83 CALM      30.26R
WEST ATLANTA   CLEAR     40  34  79 NE3       30.24F
GAINESVILLE    CLEAR     46  30  53 W3        30.25R
CARTERSVILLE   CLEAR     41  33  73 CALM      30.26F


CITY           SKY/WX    TMP DP  RH WIND       PRES   REMARKS
DALTON*        PTCLDY    37  34  87 CALM      30.26S
LAWRENCEVILLE* CLEAR     46  30  53 W5        30.24R
MARIETTA       PTCLDY    45  32  60 CALM      30.23F
CANTON*        CLEAR     45  25  45 CALM      30.26R
$$

GAZ059>098-102>109-030300-
CENTRAL GEORGIA

CITY           SKY/WX    TMP DP  RH WIND       PRES   REMARKS
AUGUSTA-BUSH   CLEAR     43  36  76 CALM      30.22R
AUGUSTA-DANIEL CLEAR     52  31  44 CALM      30.22R
COLUMBUS       CLOUDY    47  36  65 CALM      30.25S
MACON          PTCLDY    51  31  46 N6        30.25R
ROBINS AFB     PTCLDY    46  36  66 N3        30.24R


CITY           SKY/WX    TMP DP  RH WIND       PRES   REMARKS
LAGRANGE*      CLOUDY    42  38  84 CALM      30.25S
SYLVANIA*      CLEAR    N/A N/A N/A CALM      30.23R
MILLEDGEVILLE* PTCLDY    48  37  66 NW5       30.25R
$$

GAZ099>101-110>166-030300-
SOUTH GEORGIA

CITY           SKY/WX    TMP DP  RH WIND       PRES   REMARKS
SAVANNAH       PTCLDY    47  40  76 CALM      30.22S
VALDOSTA       CLOUDY    48  39  71 CALM      30.24R
ALMA           PTCLDY    45  42  89 CALM      30.24R
ST SIMONS      CLOUDY    54  41  61 N5        30.23R
FT STEWART     CLEAR     43  38  83 CALM      30.21R
ALBANY         CLOUDY    50  40  68 CALM      30.28R
HUNTER AFB     CLEAR     45  41  86 CALM      30.20R
MOODY AFB      CLOUDY    52  36  54 N7        30.24R
BRUNSWICK      CLOUDY    46  45  93 CALM      30.24R


CITY           SKY/WX    TMP DP  RH WIND       PRES   REMARKS
BAINBRIDGE*    CLOUDY    55  34  44 NE3       30.24S
MOULTRIE*      CLOUDY    54  37  54 N3        30.24S
VIDALIA*       CLEAR     46  39  76 CALM      30.24R
WAYCROSS*      PTCLDY    51  44  76 CALM      30.24R
DOUGLAS*       PTCLDY    48  39  71 CALM      30.26R
$$



USA.gov is the U.S. government's official web portal to all federal, state and local government web resources and services.